Temp
23 23 24 23 23 23 23 23 21 21 22 22 22 23 23 22 21 19 20 20 20 20 18 18 17 17 17 17 16 15 15 14 14 12 12 10 10 10 9 9 9 8 8
24 24 24 24 24 23 23 23 23 22 23 23 23 23 22 21 20 20 20 20 20 19 18 18 17 16 16 15 15 15 14 14 14 13 11 11 10 9 9 9 8 8 8
24 24 24 24 24 24 24 23 23 23 23 23 23 22 21 20 20 19 20 19 18 18 18 18 17 17 17 16 15 14 13 13 13 12 11 11 10 9 9 9 9 8 8
24 24 24 24 24 24 24 23 23 23 23 23 22 22 21 21 20 20 20 19 19 18 18 18 18 17 17 16 15 14 14 13 13 13 11 11 10 9 9 10 9 9 8
25 25 24 24 24 23 23 23 22 23 23 23 22 21 21 20 20 20 20 20 19 18 18 18 17 17 16 16 15 15 14 13 12 12 11 10 10 10 10 9 10 9 9
26 26 25 24 23 23 23 23 22 23 23 24 22 22 21 20 21 20 20 20 19 18 18 18 17 16 16 16 15 14 13 12 11 10 9 9 9 9 10 10 10 10 8
27 26 26 25 24 23 23 22 23 23 24 24 23 22 20 20 20 20 20 20 19 19 18 18 17 16 16 15 14 13 12 11 11 10 10 10 10 10 9 10 9 9 8
27 26 26 25 25 24 22 22 23 24 24 24 23 21 20 20 20 20 20 19 18 18 18 18 17 16 16 15 14 12 12 11 11 11 10 10 10 10 10 9 9 8 8
27 26 26 26 25 24 23 22 22 24 24 24 22 22 21 20 20 20 20 19 18 18 18 17 17 16 15 15 15 13 12 11 11 11 10 10 10 10 10 11 10 9 9
26 26 26 25 25 24 24 23 24 24 24 23 22 22 21 20 20 20 19 19 18 18 18 17 17 16 16 15 14 13 12 11 11 11 10 10 10 10 10 10 9 9 9
25 25 25 24 24 24 24 23 24 24 24 23 22 21 21 20 20 20 19 19 18 19 18 18 18 17 16 16 14 13 12 12 12 11 11 11 10 10 10 9 8 9 9
25 25 24 23 23 23 23 23 23 23 24 22 22 21 20 20 20 19 19 19 18 18 18 17 17 17 16 15 14 13 13 12 12 12 11 11 10 10 10 9 8 9 8
24 24 24 23 22 22 22 22 22 22 23 22 22 21 21 20 19 19 19 18 17 17 18 17 17 17 16 15 14 13 13 13 12 12 11 11 11 10 10 9 8 8 8
23 23 23 22 22 22 21 21 22 22 23 22 22 21 20 20 20 19 17 17 17 17 17 17 16 16 16 15 14 13 13 13 13 12 11 11 11 10 10 9 8 8 8
22 22 22 22 22 21 21 21 21 22 23 24 23 22 22 22 21 19 18 18 18 17 17 16 17 16 16 15 14 14 13 13 12 12 12 11 11 11 10 9 9 9 8
22 22 22 22 22 21 21 21 21 22 22 22 23 23 23 22 21 19 18 18 18 17 17 17 17 17 16 15 15 14 13 13 12 12 12 12 11 11 10 10 10 9 9
21 21 21 22 22 21 21 21 21 21 21 21 22 22 22 22 22 20 19 18 17 17 17 17 17 17 17 16 15 14 14 13 13 13 13 12 11 11 10 10 10 9 8
21 21 20 21 22 21 21 22 22 22 22 22 22 21 21 21 21 20 18 17 17 16 16 16 17 17 17 16 15 14 14 14 13 13 13 12 12 11 11 10 10 10 10
21 21 21 21 21 21 22 23 23 22 23 23 22 21 20 20 20 19 19 19 20 18 17 17 17 17 16 15 15 14 14 14 14 13 13 13 12 12 11 10 10 10 10
18 19 20 21 20 21 22 23 22 22 22 22 21 21 20 19 19 18 19 19 19 19 18 18 17 17 17 16 15 15 15 14 14 14 13 13 13 12 12 11 10 10 10
18 19 19 19 19 17 18 17 21 22 21 20 20 19 19 19 19 19 19 19 20 18 17 16 16 16 16 16 16 15 15 15 15 15 13 13 14 13 12 11 11 10 11
16 20 19 17 17 17 17 16 17 19 19 19 19 18 18 18 18 18 18 18 18 18 17 16 16 16 17 16 16 16 16 15 15 14 14 13 13 13 12 12 12 11 11
15 16 15 16 18 17 17 18 19 20 20 19 19 19 18 17 17 17 18 17 17 17 17 16 16 15 16 17 16 16 16 16 16 15 14 14 13 13 13 12 12 11 11
14 14 15 16 17 18 19 18 17 17 17 17 19 18 18 17 17 17 17 17 17 17 17 16 15 15 16 15 16 16 15 15 15 15 14 14 13 13 13 13 12 12 12
11 13 14 14 15 16 16 15 15 16 16 18 17 17 16 16 16 16 16 16 16 17 17 17 15 15 15 15 15 16 15 15 15 15 14 14 13 13 13 13 13 13 12
8 10 11 11 12 13 13 14 14 16 17 18 15 15 15 15 15 15 15 16 17 17 17 17 17 16 14 14 14 15 15 15 15 14 14 14 13 13 13 13 13 13 12
Height
1529 1534 1538 1541 1545 1549 1552 1555 1557 1559 1560 1561 1561 1560 1558 1557 1556 1555 1553 1551 1549 1547 1545 1543 1543 1542 1540 1537 1536 1534 1533 1533 1533 1533 1530 1528 1525 1522 1519 1518 1515 1513 1511
1525 1530 1534 1538 1541 1544 1548 1551 1554 1556 1558 1559 1559 1558 1557 1556 1555 1553 1552 1550 1548 1547 1545 1544 1543 1541 1540 1538 1536 1535 1535 1534 1532 1531 1530 1527 1523 1521 1519 1517 1515 1513 1510
1520 1526 1530 1534 1537 1540 1544 1547 1551 1553 1555 1556 1556 1556 1556 1555 1554 1553 1551 1549 1548 1547 1547 1545 1544 1542 1541 1540 1539 1537 1535 1534 1533 1531 1529 1527 1523 1521 1520 1518 1515 1513 1510
1515 1520 1525 1529 1533 1537 1541 1544 1548 1551 1552 1554 1554 1554 1554 1554 1553 1552 1551 1550 1548 1548 1547 1546 1544 1543 1541 1540 1540 1539 1537 1535 1533 1531 1529 1525 1522 1520 1518 1516 1514 1512 1510
1510 1515 1520 1525 1530 1534 1538 1541 1544 1548 1550 1551 1552 1553 1553 1554 1552 1552 1550 1549 1548 1548 1547 1546 1544 1543 1542 1541 1541 1540 1538 1536 1534 1532 1528 1525 1522 1520 1518 1515 1513 1511 1510
1506 1511 1516 1521 1526 1530 1534 1538 1541 1544 1547 1548 1549 1550 1551 1551 1551 1550 1550 1548 1548 1547 1547 1546 1545 1544 1544 1543 1543 1541 1539 1538 1535 1533 1529 1525 1524 1522 1519 1516 1513 1511 1511
1503 1508 1512 1518 1522 1526 1530 1534 1537 1541 1544 1545 1546 1547 1548 1550 1549 1549 1549 1547 1547 1548 1547 1547 1546 1545 1545 1545 1544 1544 1542 1540 1538 1536 1532 1528 1526 1523 1520 1517 1513 1512 1511
1499 1505 1509 1513 1519 1523 1526 1530 1534 1538 1540 1542 1544 1544 1546 1547 1548 1547 1548 1547 1547 1548 1548 1548 1548 1547 1546 1546 1545 1545 1544 1543 1541 1539 1536 1533 1530 1527 1521 1516 1514 1513 1511
1497 1501 1505 1510 1515 1519 1522 1526 1530 1534 1537 1539 1541 1541 1543 1545 1546 1545 1547 1546 1546 1547 1548 1548 1549 1548 1547 1547 1547 1547 1546 1546 1545 1543 1540 1537 1535 1531 1527 1522 1517 1516 1511
1494 1498 1502 1507 1511 1515 1518 1522 1526 1530 1533 1535 1537 1539 1541 1543 1543 1543 1545 1545 1546 1546 1547 1548 1549 1549 1549 1549 1550 1548 1548 1548 1548 1546 1544 1541 1539 1534 1530 1525 1522 1518 1513
1492 1496 1499 1503 1507 1511 1515 1518 1522 1526 1529 1531 1533 1535 1538 1539 1541 1541 1544 1545 1546 1546 1547 1548 1548 1550 1550 1551 1552 1552 1551 1550 1550 1549 1547 1544 1542 1538 1534 1530 1527 1523 1516
1490 1493 1496 1499 1503 1506 1510 1513 1517 1522 1525 1527 1529 1531 1534 1536 1538 1539 1542 1544 1545 1547 1548 1549 1549 1550 1551 1552 1553 1554 1554 1552 1552 1552 1550 1548 1545 1542 1539 1536 1533 1530 1524
1486 1489 1492 1495 1499 1502 1505 1508 1512 1516 1520 1521 1523 1526 1529 1532 1535 1537 1539 1542 1544 1547 1548 1550 1551 1551 1552 1553 1554 1555 1555 1554 1554 1554 1552 1551 1548 1546 1543 1541 1539 1536 1531
1484 1485 1487 1490 1494 1498 1501 1504 1507 1510 1513 1515 1517 1522 1525 1528 1531 1534 1537 1540 1542 1545 1547 1550 1552 1553 1553 1553 1554 1556 1556 1556 1555 1555 1554 1553 1551 1549 1548 1545 1543 1541 1537
1481 1484 1485 1487 1490 1493 1496 1499 1501 1504 1507 1508 1511 1517 1521 1522 1526 1530 1534 1537 1540 1543 1546 1548 1550 1552 1554 1554 1554 1555 1557 1558 1557 1555 1557 1557 1555 1553 1551 1549 1547 1545 1542
1478 1479 1480 1482 1485 1487 1488 1492 1495 1498 1503 1506 1511 1515 1519 1521 1523 1526 1531 1536 1539 1542 1544 1546 1549 1551 1553 1554 1554 1555 1556 1557 1558 1558 1557 1559 1559 1557 1555 1553 1550 1548 1546
1474 1475 1477 1479 1482 1482 1484 1485 1488 1492 1497 1503 1507 1512 1516 1519 1520 1523 1528 1534 1537 1539 1542 1544 1547 1549 1551 1553 1554 1555 1556 1557 1558 1559 1559 1560 1562 1561 1559 1557 1555 1552 1551
1471 1471 1472 1474 1476 1478 1480 1485 1487 1490 1493 1496 1501 1508 1514 1516 1518 1521 1525 1532 1535 1537 1540 1543 1545 1547 1549 1551 1553 1555 1556 1558 1558 1560 1561 1562 1563 1564 1563 1561 1560 1557 1555
1467 1464 1467 1469 1474 1478 1478 1481 1484 1490 1493 1494 1498 1503 1508 1513 1515 1519 1522 1527 1531 1534 1538 1541 1543 1546 1548 1549 1552 1553 1555 1557 1559 1559 1561 1562 1563 1565 1566 1564 1563 1563 1561
1466 1465 1467 1465 1465 1469 1472 1475 1477 1478 1488 1498 1499 1500 1505 1509 1511 1514 1517 1522 1527 1531 1534 1537 1540 1543 1546 1548 1550 1552 1554 1556 1558 1559 1561 1561 1562 1565 1567 1567 1566 1566 1566
1467 1461 1459 1458 1461 1440 1471 1463 1456 1486 1483 1497 1503 1500 1503 1508 1510 1514 1518 1519 1522 1527 1532 1536 1539 1541 1544 1546 1548 1550 1552 1554 1556 1558 1559 1561 1562 1563 1567 1568 1568 1568 1569
1468 1458 1454 1487 1477 1477 1475 1474 1478 1487 1489 1496 1501 1500 1503 1507 1512 1514 1516 1519 1521 1525 1529 1532 1536 1537 1540 1544 1546 1548 1549 1551 1554 1556 1558 1560 1562 1563 1565 1569 1569 1568 1569
1470 1462 1475 1484 1490 1488 1488 1491 1494 1491 1493 1498 1502 1501 1504 1508 1510 1513 1516 1518 1518 1521 1524 1528 1532 1534 1536 1539 1541 1544 1546 1548 1551 1554 1556 1558 1560 1561 1564 1568 1569 1569 1568
1478 1480 1481 1481 1483 1490 1492 1496 1499 1495 1493 1493 1491 1502 1503 1510 1511 1512 1516 1516 1515 1517 1519 1523 1527 1530 1532 1534 1536 1540 1543 1545 1547 1550 1553 1556 1559 1560 1561 1564 1569 1570 1569
1485 1484 1486 1486 1488 1491 1491 1492 1497 1497 1493 1481 1484 1499 1508 1507 1511 1511 1513 1513 1511 1514 1515 1518 1521 1525 1528 1529 1532 1535 1538 1541 1544 1546 1548 1552 1556 1558 1560 1561 1563 1568 1570
1490 1490 1491 1494 1495 1495 1495 1494 1491 1487 1484 1487 1504 1504 1504 1508 1511 1511 1510 1508 1509 1510 1511 1514 1516 1518 1523 1525 1526 1529 1533 1536 1538 1541 1543 1546 1550 1554 1557 1558 1560 1562 1565
Wind_Speed
28 24 28 27 25 22 20 18 16 15 14 15 16 12 11 11 9 8 12 13 10 11 9 7 8 7 7 9 12 12 9 10 10 7 7 7 10 11 9 12 15 15 15
31 28 24 26 25 24 21 19 18 18 15 13 12 9 9 9 5 8 11 12 6 6 9 7 7 7 7 8 8 9 11 10 6 5 5 8 13 8 8 11 14 16 16
34 30 27 26 27 27 23 20 18 16 14 11 11 10 10 10 5 8 10 9 4 5 6 6 7 7 8 8 9 8 5 4 5 5 9 13 10 4 7 10 12 14 14
35 33 30 27 24 26 23 20 18 15 14 12 12 10 9 7 7 7 9 9 3 4 4 5 7 8 10 10 9 6 4 4 7 9 12 13 9 7 8 9 10 11 11
35 33 31 27 23 23 24 22 19 17 15 13 13 10 5 2 7 10 9 10 3 2 2 4 6 8 9 10 11 13 12 12 15 17 22 21 12 8 9 11 10 8 9
35 31 28 26 25 24 24 23 21 17 14 11 11 9 5 7 7 9 9 6 1 2 2 4 5 7 8 10 13 16 18 22 24 24 26 30 21 9 7 11 10 9 10
32 29 25 24 23 22 23 22 20 16 13 11 10 7 11 10 11 10 7 4 2 2 3 5 4 6 8 9 12 15 22 25 26 27 30 33 30 20 10 9 10 7 13
32 28 25 24 22 20 21 22 19 16 14 13 12 12 12 12 12 10 4 5 4 5 5 5 3 4 7 9 11 14 18 20 23 24 29 33 33 26 19 13 7 5 11
32 31 29 25 23 21 21 21 19 18 16 15 14 15 14 14 12 11 6 7 7 7 6 4 2 2 4 8 11 14 17 17 16 20 22 26 29 28 28 24 19 9 16
28 29 28 27 25 23 22 21 20 19 17 17 16 16 14 14 13 12 9 9 9 9 8 7 6 4 4 6 11 13 16 12 10 15 15 20 22 28 31 30 29 28 22
24 24 25 26 26 25 23 24 22 21 18 19 19 17 16 16 14 13 12 8 8 8 8 9 7 6 4 6 9 11 13 10 8 13 11 20 18 23 28 31 30 30 26
25 26 27 26 26 26 26 25 24 24 22 22 21 20 19 17 15 15 13 8 6 6 6 9 8 7 6 7 11 11 10 8 8 10 12 15 16 18 23 27 28 29 31
21 22 24 26 26 28 28 28 26 25 25 26 26 25 22 20 19 19 17 10 6 6 3 7 8 8 9 10 12 10 7 6 7 9 12 15 13 15 18 23 22 24 26
19 21 22 26 27 26 26 27 27 27 29 31 30 27 25 22 23 24 22 16 12 9 7 7 7 8 11 12 10 7 5 4 5 9 12 11 13 13 16 22 21 20 23
18 20 22 24 25 25 28 27 26 28 31 33 30 24 23 23 25 24 25 20 16 12 10 10 10 11 13 12 9 6 5 5 5 6 9 11 12 12 17 18 16 16 22
18 18 22 25 25 27 32 30 28 28 28 30 23 16 9 8 13 23 26 20 17 16 15 14 11 12 13 12 8 7 7 5 3 4 7 8 10 11 14 14 16 15 20
20 19 21 23 24 29 34 31 31 32 26 28 23 16 11 6 5 19 23 22 19 18 17 15 13 13 12 14 11 8 7 6 5 4 10 13 10 8 9 11 17 15 15
20 20 21 25 26 31 33 31 31 30 28 29 29 22 17 11 8 12 17 23 21 19 17 16 14 14 13 13 12 10 9 8 8 7 8 9 8 7 8 8 12 19 21
16 18 19 19 25 27 27 28 30 27 27 25 28 25 21 14 11 12 11 13 13 15 17 14 11 12 12 13 12 13 11 8 8 11 9 7 8 8 7 8 10 15 20
11 8 4 7 11 14 29 30 28 31 26 22 22 22 21 21 21 21 17 13 15 13 13 13 12 9 9 12 16 15 13 13 11 13 13 11 9 9 6 11 12 14 19
13 21 29 18 12 16 9 13 31 24 22 14 4 9 17 20 19 17 13 14 16 19 18 17 14 15 15 14 17 17 17 16 14 15 15 11 13 15 13 11 8 14 14
4 12 9 12 9 9 3 6 8 5 18 15 12 10 10 12 14 14 14 15 17 15 19 21 19 14 22 17 19 20 19 19 18 17 17 15 15 13 15 12 11 13 14
17 15 16 13 1 8 13 16 13 13 16 16 13 12 12 5 7 8 11 13 14 16 19 18 22 16 22 26 18 19 23 20 19 18 20 19 20 19 17 15 15 15 15
14 15 14 12 12 9 8 10 9 11 14 14 11 7 4 3 4 4 5 5 3 4 11 24 23 22 19 26 23 19 20 19 17 18 22 22 24 23 20 19 16 14 18
17 12 11 13 13 13 13 11 10 8 10 12 9 2 7 8 7 7 7 2 1 2 4 9 24 28 23 20 25 22 19 19 19 17 22 24 23 26 23 24 22 17 19
21 19 15 11 10 9 8 7 7 7 7 3 6 8 8 8 8 9 11 10 7 5 4 7 9 24 29 24 26 25 20 18 18 21 21 26 25 26 27 26 26 23 24
Wind_Direction
225 226 228 227 226 224 227 228 228 235 243 258 278 294 309 327 350 341 338 345 2 2 17 24 41 29 20 23 51 68 66 47 43 74 52 34 9 12 23 11 7 354 3
226 228 229 232 232 232 230 234 238 247 261 267 275 298 313 330 1 331 327 343 5 6 15 22 30 23 31 27 40 52 63 57 68 108 46 357 349 23 32 21 13 3 11
223 227 230 232 235 237 237 238 242 247 259 265 278 292 309 323 300 310 323 338 42 10 19 26 46 48 60 62 59 62 70 89 60 358 345 340 343 52 37 31 17 5 2
224 225 228 232 235 237 236 240 244 249 260 269 272 273 282 310 270 296 307 338 350 21 27 40 54 56 62 50 54 52 25 323 358 18 19 20 36 82 62 39 29 2 3
221 227 230 234 237 239 235 238 244 251 262 269 259 262 269 172 279 285 287 331 10 58 60 60 62 60 63 68 65 62 59 62 53 46 35 29 41 69 51 26 17 10 5
219 227 233 230 234 238 234 235 239 251 258 245 246 242 224 244 266 247 294 310 326 122 91 103 85 80 83 72 68 64 65 58 55 45 46 39 39 41 26 18 12 20 8
216 223 230 229 230 235 232 233 236 241 237 234 232 215 217 241 257 272 309 288 233 162 131 120 111 95 85 75 64 59 62 59 52 49 47 41 34 28 9 6 33 14 15
213 220 226 228 229 230 227 229 230 231 232 227 232 220 227 242 253 268 243 263 205 169 149 123 89 106 79 69 65 61 59 55 50 50 48 46 42 35 22 6 13 26 9
214 219 224 228 229 227 224 221 223 227 224 233 222 225 229 237 249 258 231 222 203 175 164 139 144 108 77 73 67 77 74 64 52 42 52 46 39 36 40 46 59 67 50
216 219 223 226 230 229 225 221 222 225 229 225 221 228 233 236 243 253 226 227 212 190 172 166 162 156 135 105 95 83 79 72 57 41 49 49 39 37 37 43 47 40 39
217 217 222 225 231 233 230 224 222 220 221 221 221 225 227 233 241 243 227 232 228 207 189 175 160 156 143 100 112 96 89 94 66 39 53 57 45 40 38 36 40 34 46
212 220 224 227 228 230 229 226 224 223 220 219 217 218 221 228 231 230 225 228 230 229 209 181 167 152 147 124 123 108 107 91 58 35 71 60 50 48 41 46 44 39 50
215 219 224 225 223 225 224 225 221 216 217 214 214 218 219 218 219 216 226 217 203 206 180 177 175 159 151 140 133 124 127 110 60 48 65 68 55 57 49 45 49 46 52
222 221 221 219 219 222 221 224 222 215 210 215 217 216 222 219 216 213 209 209 213 207 185 174 188 178 161 157 152 134 131 99 59 61 66 74 64 68 58 57 55 53 54
208 225 221 221 218 216 216 217 220 219 216 215 223 222 223 225 218 218 212 212 218 219 215 208 209 198 181 173 168 157 150 138 104 71 73 75 79 70 66 61 50 63 63
215 213 220 220 221 215 213 214 214 215 214 223 229 229 252 252 233 216 212 216 218 219 221 226 222 210 198 196 187 161 168 149 151 99 121 96 97 82 76 68 50 77 78
218 208 220 223 224 219 212 213 207 203 208 213 219 218 218 242 238 204 214 214 216 218 227 233 236 225 208 204 202 196 199 173 156 107 111 109 105 108 86 71 63 81 90
219 214 214 222 224 218 212 214 210 208 207 206 212 207 201 211 187 180 199 206 211 220 228 235 234 230 219 204 202 211 209 197 178 151 112 112 124 131 118 87 79 80 93
221 210 214 227 226 225 217 218 211 209 207 203 196 193 192 189 186 194 204 216 219 224 221 224 223 227 223 212 209 219 223 223 201 165 162 150 158 165 150 118 102 93 98
62 67 64 238 223 215 223 214 192 190 189 191 192 198 198 191 194 198 204 205 212 220 226 230 227 230 233 229 222 230 227 229 224 190 187 189 193 206 205 141 121 115 110
72 62 33 339 279 354 104 18 170 173 145 141 123 202 208 213 210 209 215 209 215 217 219 210 220 239 241 241 239 237 237 236 237 208 194 189 161 150 148 148 143 136 124
179 235 4 18 36 257 296 13 12 144 111 107 92 97 157 188 211 219 226 233 233 235 229 215 213 242 242 245 256 250 246 243 240 223 203 196 171 161 168 184 174 151 146
86 114 145 177 287 43 75 125 145 134 111 114 104 90 95 135 193 219 237 247 250 243 248 218 214 228 239 252 264 261 259 264 252 238 219 204 188 185 197 204 194 177 171
80 95 119 151 169 171 108 91 105 124 125 121 105 104 101 154 167 186 221 209 195 229 248 235 217 218 237 242 255 264 260 263 256 243 230 214 200 197 200 197 208 203 176
67 86 93 102 120 130 132 127 116 106 97 86 86 168 192 183 190 169 160 172 174 241 245 249 226 218 229 240 251 267 271 260 259 245 230 218 216 208 207 198 203 213 197
56 57 71 82 84 87 95 89 87 96 85 83 173 168 183 208 219 210 204 188 182 186 217 254 250 234 225 239 241 254 257 261 254 252 237 220 221 218 214 207 209 214 205